Vertical_Velocity
-1 -1 -5 -3 -1 0 -1 -1 -0 -0 -5 -6 4 -4 2 -1 -6 -1 -1 -2 -1 -3 -1 -4 -3 0 1 -1 -1 -3 -4 -2 -2 2 0 -0 -5 -3
-2 4 0 -0 5 4 1 2 -1 4 4 -1 -0 -2 -2 -5 -2 0 3 2 -0 -1 -4 -3 -3 -2 -3 -1 0 -1 -2 -1 0 -3 -5 -1 1 -2
3 -0 -1 1 -2 0 -8 0 -2 9 8 -1 -4 -3 -1 1 1 0 1 -1 -1 -8 0 -4 -1 -2 -3 -1 -3 -4 -2 -1 -0 1 -2 -3 -4 -4
3 7 2 1 5 12 23 -11 10 10 2 1 2 4 3 -0 -3 1 1 1 -6 3 -2 -1 -1 -3 -1 -2 -4 -1 -1 1 -1 -4 -1 3 1 -0
4 -1 -1 9 -7 -13 -9 4 5 8 4 4 5 -7 1 -1 1 3 -1 -3 -1 -3 -0 1 1 -1 -1 -3 -1 -2 -1 0 -0 -3 -3 -4 -1 0
0 1 2 -8 1 -22 10 4 4 2 7 1 3 1 3 -0 0 -1 -2 -1 -3 -0 -3 -2 2 -2 2 -1 1 -0 0 2 -1 -2 -2 -1 1 0
-1 3 1 -1 5 1 5 1 2 3 -2 5 -1 1 -3 -1 -3 3 -3 1 -1 -3 2 -0 -3 -5 -3 -8 -8 -9 -6 -2 0 -1 -3 -3 -4 -3
-1 -3 -0 2 7 6 6 7 2 4 5 1 3 -2 -1 0 -1 -1 -2 -3 -4 -4 -1 -6 -1 -6 -1 -4 -1 1 2 3 -1 -2 -4 -2 -1 -1
1 6 2 -1 4 8 1 4 7 5 1 4 -1 -3 0 -0 -4 -1 -1 -1 -2 -2 2 -7 -7 -10 1 -5 -5 -4 -4 -3 -2 -4 -4 -5 -2 -3
3 2 2 3 2 6 1 14 5 2 0 -0 1 0 0 -1 -0 -1 -0 -2 -5 -6 -1 -3 -2 -4 2 -4 -6 -4 -5 -3 -2 -1 -3 -3 -1 -1
1 6 3 8 7 5 4 -9 -0 3 2 -3 1 2 1 -1 -1 -0 -1 0 -3 -5 4 3 1 -3 -2 -8 1 5 -2 -4 -3 -5 -4 -1 -0 1
6 1 7 3 3 12 22 2 -1 -2 -2 -1 1 0 0 -4 -0 0 -0 -0 0 -5 10 -3 -3 -3 -11 -4 -1 -6 -4 -3 -1 -6 -1 2 -0 11
9 5 3 8 4 -7 15 -11 5 -2 -4 -1 0 1 0 1 -0 -2 0 1 -1 -1 4 3 -3 -1 -2 -11 -0 -1 -1 -2 6 -2 1 -0 2 1
0 3 7 10 -4 -11 10 0 5 -7 -2 -0 2 0 0 -2 0 -1 -1 0 1 -1 1 3 -7 -1 1 -4 -7 2 0 1 1 -6 6 -1 -6 -7
12 3 -2 -6 -10 4 8 3 -6 -2 0 2 0 1 -2 -3 -1 0 1 1 0 -1 -0 1 -0 3 2 -1 -9 -3 -8 -3 -2 1 1 -0 2 4
-3 -4 -4 2 8 6 -2 -4 0 0 -0 -2 -2 -2 -2 0 -0 -1 -2 1 -1 -1 -1 -1 -2 1 -1 -1 1 -7 0 -1 8 10 -1 -4 -2 0
-4 1 3 -1 -7 -5 -1 -1 -2 -1 -1 -3 -3 -3 -2 -1 -2 -1 -1 -1 -3 -3 -4 -1 0 0 -0 2 -4 -2 -3 -9 -1 7 7 -3 -0 -1
4 -3 -7 -2 2 2 1 0 1 -1 -2 -1 -0 -1 0 -3 -1 -1 -1 -0 -1 -1 -0 -1 -1 -3 -5 -6 5 -5 -4 2 2 2 3 1 -0 -1
-2 0 1 1 1 1 2 0 2 -1 -1 -1 0 -0 -1 -2 -1 0 0 -1 -2 -1 1 3 -1 3 1 -4 -7 6 18 28 15 7 -1 -2 -3 -1
-0 1 -0 -1 -0 0 0 -0 -0 -0 -2 -0 1 -1 -2 -1 -0 0 1 0 0 -0 -5 -4 3 4 10 4 -11 -17 14 -2 27 3 -2 2 6 -0
1 1 1 1 1 -1 2 1 -2 -3 -2 -1 -2 -2 -0 -1 -2 -1 -1 -1 -2 -1 1 -1 1 -3 -7 4 -2 -13 -11 5 6 22 5 3 2 2
1 1 -0 -2 -1 0 -1 -2 -1 -0 0 -1 -0 -2 -2 -1 -1 1 1 1 0 -0 -2 -1 -1 0 -0 7 -3 -6 -6 -4 5 11 1 2 6 5
-0 -1 -1 -1 -3 -3 -3 -3 -2 -2 -2 -1 -2 -2 -0 -2 -2 -1 0 0 -0 -0 -1 -7 -2 2 -2 5 -0 -3 -2 -4 36 -5 -3 0 -1 -4
Height
1535 1535 1536 1536 1536 1536 1535 1534 1536 1535 1533 1534 1537 1536 1537 1537 1536 1537 1537 1536 1536 1537 1536 1536 1535 1533 1533 1533 1533 1532 1531 1529 1528 1527 1525 1524 1522 1521
1527 1528 1528 1529 1528 1527 1528 1527 1528 1528 1526 1526 1527 1528 1529 1529 1530 1529 1530 1530 1529 1528 1528 1527 1527 1526 1526 1525 1524 1523 1522 1520 1518 1516 1515 1512 1510 1509
1518 1516 1518 1519 1518 1518 1519 1520 1519 1518 1517 1517 1519 1520 1520 1523 1524 1523 1522 1522 1522 1520 1520 1520 1519 1519 1518 1517 1516 1514 1512 1510 1507 1505 1503 1500 1496 1494
1508 1506 1508 1509 1510 1509 1503 1509 1509 1508 1508 1509 1511 1512 1515 1514 1517 1516 1516 1516 1516 1514 1513 1513 1512 1510 1509 1508 1506 1505 1502 1499 1496 1493 1489 1487 1483 1480
1497 1496 1498 1499 1498 1500 1500 1499 1499 1499 1500 1502 1504 1505 1508 1507 1509 1509 1509 1508 1508 1507 1506 1505 1503 1502 1501 1499 1498 1496 1492 1489 1485 1481 1476 1472 1468 1465
1485 1485 1486 1486 1487 1487 1491 1491 1491 1492 1493 1495 1496 1498 1499 1501 1502 1503 1504 1504 1503 1501 1499 1497 1496 1495 1493 1491 1490 1486 1482 1478 1473 1468 1464 1459 1455 1451
1472 1473 1472 1476 1476 1478 1479 1480 1482 1484 1484 1486 1488 1489 1492 1495 1495 1498 1498 1497 1496 1494 1492 1490 1488 1486 1485 1481 1479 1476 1472 1468 1463 1458 1452 1447 1444 1442
1462 1463 1464 1467 1467 1469 1470 1471 1473 1474 1476 1477 1480 1483 1486 1489 1490 1491 1491 1491 1491 1489 1485 1484 1482 1478 1477 1474 1471 1468 1464 1459 1453 1448 1443 1438 1435 1433
1452 1453 1455 1456 1457 1458 1460 1462 1465 1468 1471 1472 1474 1477 1480 1481 1482 1483 1484 1483 1482 1482 1479 1475 1474 1471 1470 1466 1462 1458 1453 1448 1443 1439 1435 1431 1427 1426
1443 1444 1446 1447 1448 1449 1451 1455 1457 1461 1464 1468 1471 1471 1473 1474 1475 1476 1476 1475 1474 1473 1472 1467 1467 1463 1460 1457 1452 1448 1444 1440 1436 1432 1428 1424 1420 1420
1435 1436 1439 1440 1443 1446 1445 1454 1454 1458 1461 1464 1467 1466 1467 1468 1469 1469 1469 1469 1466 1466 1465 1460 1459 1455 1451 1446 1445 1442 1436 1433 1429 1425 1420 1416 1414 1413
1427 1430 1434 1437 1440 1446 1442 1443 1450 1455 1458 1461 1462 1461 1461 1461 1463 1463 1463 1462 1462 1460 1459 1454 1451 1450 1441 1439 1437 1434 1431 1428 1424 1418 1413 1409 1408 1409
1421 1424 1430 1433 1438 1439 1439 1447 1446 1447 1455 1457 1457 1456 1456 1456 1457 1457 1456 1456 1455 1454 1452 1447 1443 1442 1440 1432 1429 1427 1424 1421 1419 1414 1409 1408 1408 1409
1420 1426 1429 1433 1435 1436 1441 1444 1443 1446 1451 1453 1453 1452 1452 1452 1452 1451 1450 1448 1446 1445 1444 1441 1435 1435 1432 1427 1422 1420 1419 1417 1415 1412 1410 1406 1406 1408
1423 1424 1428 1431 1436 1440 1439 1439 1442 1446 1448 1448 1447 1447 1446 1446 1445 1444 1443 1441 1438 1437 1435 1433 1430 1427 1425 1421 1416 1413 1411 1409 1408 1407 1406 1405 1405 1407
1422 1425 1428 1433 1435 1436 1437 1440 1441 1442 1442 1441 1441 1442 1442 1441 1439 1437 1435 1433 1430 1428 1428 1426 1423 1420 1416 1414 1411 1405 1406 1405 1403 1401 1403 1403 1403 1403
1422 1426 1429 1431 1434 1436 1436 1436 1436 1437 1436 1435 1435 1436 1436 1435 1432 1430 1427 1425 1424 1422 1421 1420 1417 1414 1410 1407 1403 1400 1397 1397 1398 1396 1397 1397 1398 1398
1425 1426 1429 1432 1433 1433 1433 1433 1432 1431 1431 1431 1431 1430 1429 1428 1427 1425 1423 1421 1419 1418 1416 1414 1411 1407 1403 1399 1397 1392 1390 1389 1391 1391 1391 1392 1393 1394
1424 1426 1428 1429 1430 1430 1430 1430 1430 1428 1428 1428 1427 1426 1424 1424 1422 1420 1418 1416 1414 1412 1409 1408 1405 1403 1397 1391 1390 1387 1384 1382 1381 1383 1385 1387 1388 1389
1421 1423 1424 1425 1426 1426 1427 1426 1426 1426 1426 1425 1423 1421 1420 1418 1417 1415 1413 1411 1409 1406 1402 1401 1399 1396 1392 1386 1380 1375 1376 1373 1374 1375 1379 1382 1383 1383
1421 1422 1422 1424 1424 1424 1424 1422 1421 1422 1421 1418 1418 1417 1416 1413 1412 1410 1408 1405 1402 1400 1397 1395 1395 1392 1388 1383 1374 1370 1367 1368 1370 1372 1373 1376 1378 1380
1420 1420 1420 1421 1422 1421 1420 1420 1420 1420 1418 1416 1414 1412 1410 1408 1407 1405 1403 1400 1397 1395 1392 1389 1386 1383 1381 1380 1372 1368 1361 1360 1362 1365 1368 1371 1374 1375
1416 1417 1417 1417 1417 1418 1418 1417 1416 1414 1412 1411 1409 1407 1405 1403 1402 1399 1397 1395 1392 1390 1388 1384 1382 1378 1375 1372 1367 1362 1357 1355 1358 1360 1364 1368 1370 1372